TimeMDT,TemperatureF,Dew PointF,Humidity,Sea Level PressureIn,VisibilityMPH,Wind Direction,Wind SpeedMPH,Gust SpeedMPH,PrecipitationIn,Events,Conditions,WindDirDegrees,DateUTC
12:53 AM,54.0,48.9,83,30.13,10.0,East,3.5,-,N/A,,Clear,80,2013-06-17 06:53:00
1:53 AM,53.1,48.0,83,30.13,10.0,NE,3.5,-,N/A,,Clear,40,2013-06-17 07:53:00
2:53 AM,50.0,46.9,89,30.13,10.0,Calm,Calm,-,N/A,,Clear,0,2013-06-17 08:53:00
3:53 AM,50.0,45.0,83,30.12,10.0,Calm,Calm,-,N/A,,Partly Cloudy,0,2013-06-17 09:53:00
4:53 AM,48.9,46.0,90,30.12,10.0,ESE,3.5,-,N/A,,Mostly Cloudy,120,2013-06-17 10:53:00
5:53 AM,48.0,46.0,93,30.13,10.0,Calm,Calm,-,N/A,,Clear,0,2013-06-17 11:53:00
6:53 AM,53.1,48.0,83,30.13,10.0,East,4.6,-,N/A,,Clear,90,2013-06-17 12:53:00
7:53 AM,55.9,50.0,80,30.12,10.0,East,6.9,-,N/A,,Clear,80,2013-06-17 13:53:00
8:53 AM,61.0,50.0,67,30.12,10.0,East,8.1,-,N/A,,Clear,80,2013-06-17 14:53:00
9:53 AM,66.0,52.0,60,30.10,10.0,East,5.8,-,N/A,,Clear,90,2013-06-17 15:53:00
10:53 AM,68.0,50.0,52,30.09,10.0,Calm,Calm,-,N/A,,Clear,0,2013-06-17 16:53:00
11:53 AM,71.1,50.0,47,30.08,10.0,Variable,5.8,-,N/A,,Clear,0,2013-06-17 17:53:00
12:53 PM,73.0,48.0,41,30.05,10.0,ESE,8.1,-,N/A,,Clear,120,2013-06-17 18:53:00
1:53 PM,75.0,48.0,38,30.03,10.0,East,9.2,-,N/A,,Clear,80,2013-06-17 19:53:00
2:53 PM,75.9,48.9,38,30.01,10.0,Variable,6.9,16.1,N/A,,Clear,0,2013-06-17 20:53:00
3:53 PM,77.0,51.1,40,29.99,10.0,East,12.7,18.4,N/A,,Clear,80,2013-06-17 21:53:00
4:53 PM,77.0,53.1,43,29.97,10.0,ENE,13.8,-,N/A,,Clear,70,2013-06-17 22:53:00
5:53 PM,78.1,53.1,42,29.95,10.0,East,19.6,-,N/A,,Clear,90,2013-06-17 23:53:00
6:53 PM,75.9,53.1,45,29.94,10.0,East,17.3,23.0,N/A,,Clear,100,2013-06-18 00:53:00
7:53 PM,73.0,55.0,53,29.93,10.0,ESE,17.3,-,N/A,,Clear,110,2013-06-18 01:53:00
8:53 PM,70.0,54.0,57,29.92,10.0,East,12.7,-,N/A,,Clear,90,2013-06-18 02:53:00
9:53 PM,66.0,54.0,65,29.93,10.0,East,11.5,-,N/A,,Clear,80,2013-06-18 03:53:00
10:53 PM,64.9,53.1,65,29.91,10.0,East,10.4,-,N/A,,Clear,90,2013-06-18 04:53:00
11:53 PM,64.0,51.1,63,29.91,10.0,ENE,11.5,-,N/A,,Clear,70,2013-06-18 05:53:00